Theta_e
305 305 305 305 305 304 303 303 301 300 298 298 299 298 292 289 289 290 289 290 290 291 290 289 290 291 291 291 292 292 293 293 294 296 296 297 298 299
305 305 305 304 303 302 301 301 300 299 298 297 296 291 289 289 289 289 289 289 290 289 288 289 289 289 290 290 290 291 291 291 292 293 294 295 296 298
305 304 302 301 300 300 299 298 297 294 293 291 289 289 289 288 289 288 288 288 288 288 288 288 288 289 289 289 289 289 290 290 291 292 293 293 295 296
303 302 301 300 299 298 297 296 292 290 289 288 288 288 288 288 288 288 288 288 288 287 288 288 288 288 288 288 288 289 289 289 289 291 291 291 291 292
302 301 300 299 298 296 294 293 290 289 288 288 287 287 287 288 288 288 287 288 287 288 287 287 287 287 288 287 287 288 288 289 290 290 290 290 290 291
301 300 299 298 297 294 292 290 289 288 288 287 287 287 287 287 287 287 287 287 287 287 287 287 287 287 287 287 287 287 288 288 288 289 290 289 289 288
299 298 298 296 294 292 290 289 288 288 288 287 287 287 287 287 287 287 287 287 287 287 287 287 286 286 286 286 286 286 287 288 288 288 288 288 288 287
298 297 295 294 292 291 290 288 288 288 288 287 287 286 287 287 287 287 287 286 287 286 286 286 286 286 286 286 286 288 288 288 288 287 287 287 287 288
298 295 293 293 291 290 289 288 288 288 287 287 287 287 287 287 287 287 287 286 286 286 286 286 286 286 286 286 287 287 287 286 286 286 286 286 287 288
296 295 293 291 291 289 288 288 288 287 287 287 287 287 286 286 286 286 286 285 286 286 286 286 285 286 286 286 286 285 285 285 285 285 286 286 287 288
294 293 291 291 289 288 287 287 287 286 286 287 287 287 286 286 286 286 285 285 286 286 286 285 286 285 285 286 285 285 284 284 284 284 285 286 287 291
292 292 291 289 288 287 288 287 286 286 286 286 286 287 286 286 286 286 285 285 285 286 286 284 285 284 285 286 284 284 283 284 283 284 285 288 290 293
291 290 289 288 287 288 287 287 286 286 286 286 285 286 286 286 286 286 286 285 285 286 286 284 283 283 283 284 283 283 282 283 283 284 286 289 295 297
290 289 288 286 288 288 287 287 286 286 286 285 284 284 284 285 285 285 286 286 286 285 285 284 283 282 282 283 282 282 282 282 283 284 285 290 296 298
289 288 286 287 287 287 286 286 286 285 285 284 284 284 284 284 284 285 285 285 285 286 284 284 284 282 281 281 281 281 281 282 282 284 285 288 292 294
287 286 287 287 286 286 285 285 285 285 285 284 284 284 283 284 284 284 283 283 284 284 284 284 283 281 280 280 281 280 281 282 282 284 285 287 290 291
286 286 286 285 285 285 285 285 285 284 285 284 284 284 284 284 283 283 282 282 283 283 284 283 283 281 280 280 281 280 280 281 282 284 285 285 285 287
285 285 286 285 285 285 284 284 284 284 284 283 283 283 284 283 283 283 283 283 283 283 283 280 281 280 280 280 280 281 281 280 282 283 284 284 284 284
285 285 285 285 284 284 284 284 284 283 283 283 283 283 283 283 283 283 282 282 283 283 282 281 280 278 279 280 279 281 281 281 282 283 283 283 284 283
286 286 285 285 285 284 284 283 284 283 283 283 283 283 283 283 283 282 282 282 282 282 281 281 280 279 279 279 278 279 282 282 281 282 284 284 284 285
285 286 286 286 286 285 284 284 283 284 283 282 282 282 282 282 282 282 282 282 282 282 281 280 280 280 280 279 279 279 279 281 283 283 283 284 284 283
285 286 287 286 286 286 285 284 283 283 283 282 282 282 282 282 282 281 282 282 282 281 281 281 280 281 280 277 276 277 278 279 280 281 282 284 284 283
285 286 287 287 286 286 285 284 284 283 283 282 281 281 281 282 281 281 281 282 283 282 282 281 280 280 278 277 276 276 277 277 278 279 279 280 281 281
Wind_Speed
19 17 16 14 11 9 8 7 5 1 2 4 4 9 22 24 24 21 24 24 26 25 26 25 26 27 30 29 29 27 28 29 28 28 26 27 29 30
20 19 16 14 14 11 9 6 5 5 2 4 6 18 21 24 23 23 24 26 26 25 26 28 28 28 28 29 29 30 30 29 29 27 28 27 28 27
22 19 17 15 13 10 6 5 2 5 6 7 9 17 20 22 24 25 25 26 25 25 25 27 29 29 30 31 30 31 28 27 26 25 25 27 26 28
26 23 20 15 11 7 5 6 3 5 4 6 12 15 18 21 24 24 25 24 23 25 27 29 27 29 32 31 32 29 27 25 25 25 25 26 27 27
22 22 21 13 9 6 2 4 6 5 4 6 10 14 17 21 25 22 20 23 22 25 25 26 30 32 32 32 30 29 28 24 26 26 28 28 27 27
25 19 13 10 8 6 2 5 7 5 4 7 10 15 16 20 16 19 26 24 26 26 22 29 34 31 35 31 28 24 23 24 27 25 26 30 34 36
24 16 13 10 6 3 8 8 7 4 4 6 9 12 15 18 19 22 23 27 27 13 27 32 33 33 38 32 28 23 23 23 25 29 32 36 37 35
25 19 16 13 9 11 8 6 6 4 3 5 7 13 14 20 17 20 22 25 12 16 32 34 32 34 35 34 29 21 25 28 32 34 34 35 35 36
26 24 21 13 13 12 9 8 7 5 4 6 8 13 15 18 20 20 20 23 21 29 27 27 30 32 34 37 22 26 30 32 30 30 32 34 33 29
28 25 20 19 16 12 9 8 6 3 3 5 9 10 12 15 16 17 20 22 22 23 26 15 34 29 37 29 24 32 30 33 31 31 31 30 30 29
25 20 19 17 14 12 10 8 4 1 2 6 7 8 9 11 14 18 18 18 16 23 12 25 30 32 32 22 32 32 37 32 33 32 31 31 28 25
23 20 19 17 15 12 11 8 3 1 6 9 7 7 7 9 12 15 16 15 17 8 12 23 26 29 11 13 38 35 39 38 35 34 34 30 23 19
27 24 20 18 14 12 9 7 2 2 5 9 7 6 7 10 15 17 14 13 15 13 23 23 21 23 13 30 28 30 36 39 36 40 39 28 12 8
28 24 19 17 14 11 9 6 3 1 5 8 8 10 12 16 18 20 16 11 13 15 19 20 18 20 17 21 14 32 40 33 38 39 39 28 17 6
24 21 19 17 14 12 9 5 3 2 4 6 7 9 13 16 18 20 18 17 18 10 15 18 23 23 18 18 21 25 29 30 40 37 35 33 30 26
18 20 21 18 13 11 8 5 3 3 4 4 6 9 12 15 16 18 18 20 18 20 22 21 24 12 17 22 20 23 29 16 34 33 26 39 36 31
24 24 21 18 15 11 8 6 4 2 4 5 6 10 13 16 17 18 13 15 15 17 24 30 24 6 16 26 19 24 26 30 33 30 27 39 42 36
27 23 21 19 16 14 10 7 4 3 4 4 6 10 12 15 16 16 14 13 14 17 17 24 26 17 4 14 32 29 28 24 27 26 30 40 39 40
21 21 21 20 17 14 10 7 5 3 4 3 5 7 9 12 14 15 16 13 13 14 12 19 22 17 8 6 18 40 27 29 26 32 33 38 37 36
19 22 21 19 16 14 11 7 5 2 1 1 3 5 8 10 12 15 14 12 14 11 12 17 20 15 10 6 7 26 38 33 26 24 26 38 46 49
19 20 18 16 15 13 11 8 6 5 4 3 3 4 6 9 13 13 13 12 15 10 10 14 16 11 7 9 11 22 33 38 31 28 20 26 31 35
21 19 17 15 14 13 11 9 7 5 5 5 1 0 3 6 9 11 11 12 12 7 7 10 8 7 15 12 12 13 21 31 39 37 29 16 12 10
19 17 16 14 14 13 12 11 9 7 8 6 5 4 2 2 5 7 9 10 9 4 4 6 8 10 13 13 15 17 22 26 29 40 43 42 42 44
Wind_Direction
179 173 167 158 156 154 156 148 147 167 297 305 300 306 319 328 334 334 335 336 335 333 338 332 323 319 314 311 311 307 305 300 300 298 299 295 294 290
168 163 157 152 144 139 134 136 146 167 238 262 287 311 323 330 336 336 339 340 338 340 336 319 314 314 312 314 307 303 304 302 301 297 296 293 289 293
158 153 146 140 129 122 123 109 44 218 234 279 293 320 328 337 338 341 341 340 337 329 320 316 315 316 315 314 308 303 302 302 303 301 297 294 291 288
153 148 142 142 130 127 119 71 269 247 259 293 310 325 328 344 339 332 338 343 330 328 320 319 321 320 316 314 313 311 304 304 303 302 299 295 293 289
151 148 146 139 135 137 133 81 247 250 271 298 311 317 325 343 335 338 340 335 327 321 324 331 323 322 315 317 318 314 308 309 307 306 302 297 295 292
155 145 142 151 151 151 151 208 232 259 293 308 312 317 323 333 335 339 335 337 325 326 332 330 325 325 322 321 315 313 313 310 305 304 302 298 295 294
150 152 156 158 129 181 211 215 230 255 298 312 320 316 323 333 348 337 328 326 328 337 335 329 328 322 318 320 320 316 319 326 318 317 311 302 297 293
156 154 156 155 155 209 201 214 243 269 291 305 321 315 324 336 335 331 328 332 338 337 333 323 326 318 318 320 329 334 332 324 316 312 306 305 300 294
160 162 161 156 194 203 197 215 238 248 291 301 313 317 323 341 338 326 326 321 321 322 329 317 326 319 323 325 340 335 329 328 322 314 309 307 302 295
168 170 157 180 196 201 198 210 224 243 277 311 311 320 334 337 334 323 321 316 323 330 336 318 327 322 323 326 337 337 335 332 328 322 318 312 304 298
164 159 176 189 195 190 192 196 201 289 334 317 300 309 328 331 335 333 335 332 339 337 354 344 322 323 320 312 332 340 342 340 335 329 324 316 307 299
161 175 193 192 185 193 193 190 179 4 339 344 315 290 319 331 346 351 341 335 339 338 346 342 328 345 323 305 327 339 344 350 342 338 334 324 309 288
172 185 187 186 180 177 199 188 190 312 332 340 332 326 336 347 355 357 348 341 333 314 327 339 323 331 313 314 322 338 345 348 346 344 349 348 324 236
177 184 180 171 166 171 190 188 194 354 353 351 4 353 340 347 354 350 351 353 351 327 333 329 319 330 323 321 329 337 344 351 353 348 351 18 58 105
181 178 169 158 157 163 179 188 153 64 5 19 1 352 344 344 347 348 1 359 356 353 355 338 337 330 346 331 323 339 346 348 356 356 6 34 60 80
171 166 159 157 163 172 179 173 155 79 30 18 356 356 359 0 352 348 354 5 356 352 352 348 344 342 360 349 344 356 357 355 355 6 23 49 59 75
166 157 154 163 165 171 179 169 146 103 28 33 11 8 5 2 357 352 354 360 356 352 346 350 8 336 30 12 4 13 8 4 5 15 44 56 52 69
165 164 167 171 174 180 183 174 142 74 26 33 16 15 4 2 354 358 3 355 355 2 356 13 17 19 31 12 26 19 19 15 16 36 58 69 59 64
166 173 175 176 179 184 187 172 134 77 50 34 21 9 4 4 358 2 3 349 352 5 10 16 17 18 23 21 20 37 27 21 26 47 63 72 74 71
180 183 186 183 186 192 192 181 169 148 80 12 18 6 9 4 2 6 359 349 350 3 10 9 10 4 18 7 9 34 46 41 34 46 67 85 88 95
190 196 195 192 193 198 197 199 213 215 252 299 31 11 5 6 5 359 347 350 356 7 19 5 6 10 25 61 55 43 47 55 47 51 65 80 84 85
194 191 192 195 199 200 200 206 214 220 240 271 290 232 359 18 9 354 345 347 355 11 33 14 29 61 69 67 58 62 53 62 69 68 66 81 103 90
199 197 195 200 204 205 212 216 217 237 256 268 259 246 241 8 356 339 341 346 345 3 4 21 62 75 81 78 81 74 73 70 71 74 70 84 99 106